owner,sensor,date,latitude,longitude,air_pressure(mBar),qcFlag 
TABS,ioos:station:wmo:42047:1,2014-07-01T00:00:00Z,27.8966,-93.5973,1016.03,11111222 
TABS,ioos:station:wmo:42047:1,2014-07-01T00:30:00Z,27.8966,-93.5973,1015.97,11111222 
TABS,ioos:station:wmo:42047:1,2014-07-01T01:00:00Z,27.8966,-93.5973,1015.84,11111222 
TABS,ioos:station:wmo:42047:1,2014-07-01T01:30:00Z,27.8966,-93.5973,1015.6,11111222 
TABS,ioos:station:wmo:42047:1,2014-07-01T02:00:00Z,27.8966,-93.5973,1015.8,11111222 
TABS,ioos:station:wmo:42047:1,2014-07-01T02:30:00Z,27.8966,-93.5973,1015.91,11111222 
TABS,ioos:station:wmo:42047:1,2014-07-01T03:00:00Z,27.8966,-93.5973,1016.03,11111222 
TABS,ioos:station:wmo:42047:1,2014-07-01T03:30:00Z,27.8966,-93.5973,1016.22,11111222 
TABS,ioos:station:wmo:42047:1,2014-07-01T04:00:00Z,27.8966,-93.5973,1016.28,11111222 
TABS,ioos:station:wmo:42047:1,2014-07-01T04:30:00Z,27.8966,-93.5973,1016.02,11111222 
TABS,ioos:station:wmo:42047:1,2014-07-01T05:00:00Z,27.8966,-93.5973,1015.95,11111222 
TABS,ioos:station:wmo:42047:1,2014-07-01T05:30:00Z,27.8966,-93.5973,1015.57,11111222 
TABS,ioos:station:wmo:42047:1,2014-07-01T06:00:00Z,27.8966,-93.5973,1015.35,11111222 
TABS,ioos:station:wmo:42047:1,2014-07-01T06:30:00Z,27.8966,-93.5973,1015.19,11111222 
TABS,ioos:station:wmo:42047:1,2014-07-01T07:00:00Z,27.8966,-93.5973,1014.65,11111222 
TABS,ioos:station:wmo:42047:1,2014-07-01T07:30:00Z,27.8966,-93.5973,1014.52,11111222 
TABS,ioos:station:wmo:42047:1,2014-07-01T08:00:00Z,27.8966,-93.5973,1014.17,11111222 
TABS,ioos:station:wmo:42047:1,2014-07-01T08:30:00Z,27.8966,-93.5973,1014.1,11111222 
TABS,ioos:station:wmo:42047:1,2014-07-01T09:00:00Z,27.8966,-93.5973,1014.03,11111222 
TABS,ioos:station:wmo:42047:1,2014-07-01T09:30:00Z,27.8966,-93.5973,1013.97,11111222 
TABS,ioos:station:wmo:42047:1,2014-07-01T10:00:00Z,27.8966,-93.5973,1014.17,11111222 
TABS,ioos:station:wmo:42047:1,2014-07-01T10:30:00Z,27.8966,-93.5973,1014.54,11111222 
TABS,ioos:station:wmo:42047:1,2014-07-01T11:00:00Z,27.8966,-93.5973,1014.92,11111222 
TABS,ioos:station:wmo:42047:1,2014-07-01T11:30:00Z,27.8966,-93.5973,1015.47,11111222 
TABS,ioos:station:wmo:42047:1,2014-07-01T12:00:00Z,27.8966,-93.5973,1015.33,11111222 
TABS,ioos:station:wmo:42047:1,2014-07-01T12:30:00Z,27.8966,-93.5973,1015.68,11111222 
TABS,ioos:station:wmo:42047:1,2014-07-01T13:00:00Z,27.8966,-93.5973,1015.83,11111222 
TABS,ioos:station:wmo:42047:1,2014-07-01T13:30:00Z,27.8966,-93.5973,1015.9,11111222 
TABS,ioos:station:wmo:42047:1,2014-07-01T14:00:00Z,27.8966,-93.5973,1016.18,11111222 
TABS,ioos:station:wmo:42047:1,2014-07-01T14:30:00Z,27.8966,-93.5973,1016.3,11111222 
TABS,ioos:station:wmo:42047:1,2014-07-01T15:00:00Z,27.8966,-93.5973,1016.3,11111222 
TABS,ioos:station:wmo:42047:1,2014-07-01T15:30:00Z,27.8966,-93.5973,1016.22,11111222 
TABS,ioos:station:wmo:42047:1,2014-07-01T16:00:00Z,27.8966,-93.5973,1016.62,11111222 
TABS,ioos:station:wmo:42047:1,2014-07-01T16:30:00Z,27.8966,-93.5973,1016.75,11111222 
TABS,ioos:station:wmo:42047:1,2014-07-01T17:00:00Z,27.8966,-93.5973,1016.69,11111222 
TABS,ioos:station:wmo:42047:1,2014-07-01T17:30:00Z,27.8966,-93.5973,1016.48,11111222 
TABS,ioos:station:wmo:42047:1,2014-07-01T18:00:00Z,27.8966,-93.5973,1016.32,11111222 
TABS,ioos:station:wmo:42047:1,2014-07-01T18:30:00Z,27.8966,-93.5973,1016.21,11111222 
TABS,ioos:station:wmo:42047:1,2014-07-01T19:00:00Z,27.8966,-93.5973,1016.35,11111222 
TABS,ioos:station:wmo:42047:1,2014-07-01T19:30:00Z,27.8966,-93.5973,1016.29,11111222 
TABS,ioos:station:wmo:42047:1,2014-07-01T20:00:00Z,27.8966,-93.5973,1016.01,11111222 
TABS,ioos:station:wmo:42047:1,2014-07-01T20:30:00Z,27.8966,-93.5973,1015.9,11111222 
TABS,ioos:station:wmo:42047:1,2014-07-01T21:00:00Z,27.8966,-93.5973,1015.75,11111222 
TABS,ioos:station:wmo:42047:1,2014-07-01T21:30:00Z,27.8966,-93.5973,1015.53,11111222 
TABS,ioos:station:wmo:42047:1,2014-07-01T22:00:00Z,27.8966,-93.5973,1015.54,11111222 
TABS,ioos:station:wmo:42047:1,2014-07-01T22:30:00Z,27.8966,-93.5973,1015.12,11111222 
TABS,ioos:station:wmo:42047:1,2014-07-01T23:00:00Z,27.8966,-93.5973,1015.02,11111222 
TABS,ioos:station:wmo:42047:1,2014-07-01T23:30:00Z,27.8966,-93.5973,1015.15,11111222 
TABS,ioos:station:wmo:42047:1,2014-07-02T00:00:00Z,27.8966,-93.5973,1015.25,11111222 
TABS,ioos:station:wmo:42047:1,2014-07-02T00:30:00Z,27.8966,-93.5973,1015.29,11111222 
TABS,ioos:station:wmo:42047:1,2014-07-02T01:00:00Z,27.8966,-93.5973,1015.32,11111222 
TABS,ioos:station:wmo:42047:1,2014-07-02T01:30:00Z,27.8966,-93.5973,1015.42,11111222 
TABS,ioos:station:wmo:42047:1,2014-07-02T02:00:00Z,27.8966,-93.5973,1015.41,11111222 
TABS,ioos:station:wmo:42047:1,2014-07-02T02:30:00Z,27.8966,-93.5973,1015.31,11111222 
TABS,ioos:station:wmo:42047:1,2014-07-02T03:00:00Z,27.8966,-93.5973,1015.52,11111222 
TABS,ioos:station:wmo:42047:1,2014-07-02T03:30:00Z,27.8966,-93.5973,1015.85,11111222 
TABS,ioos:station:wmo:42047:1,2014-07-02T04:00:00Z,27.8966,-93.5973,1016.09,11111222 
TABS,ioos:station:wmo:42047:1,2014-07-02T04:30:00Z,27.8966,-93.5973,1016.1,11111222 
TABS,ioos:station:wmo:42047:1,2014-07-02T05:00:00Z,27.8966,-93.5973,1015.91,11111222 
TABS,ioos:station:wmo:42047:1,2014-07-02T05:30:00Z,27.8966,-93.5973,1015.8,11111222 
TABS,ioos:station:wmo:42047:1,2014-07-02T06:00:00Z,27.8966,-93.5973,1015.43,11111222 
TABS,ioos:station:wmo:42047:1,2014-07-02T06:30:00Z,27.8966,-93.5973,1015.3,11111222 
TABS,ioos:station:wmo:42047:1,2014-07-02T07:00:00Z,27.8966,-93.5973,1015.26,11111222 
TABS,ioos:station:wmo:42047:1,2014-07-02T07:30:00Z,27.8966,-93.5973,1015.21,11111222 
TABS,ioos:station:wmo:42047:1,2014-07-02T08:00:00Z,27.8966,-93.5973,1015.25,11111222 
TABS,ioos:station:wmo:42047:1,2014-07-02T08:30:00Z,27.8966,-93.5973,1015.58,11111222 
TABS,ioos:station:wmo:42047:1,2014-07-02T09:00:00Z,27.8966,-93.5973,1015.71,11111222 
TABS,ioos:station:wmo:42047:1,2014-07-02T09:30:00Z,27.8966,-93.5973,1015.65,11111222 
TABS,ioos:station:wmo:42047:1,2014-07-02T10:00:00Z,27.8966,-93.5973,1015.75,11111222 
TABS,ioos:station:wmo:42047:1,2014-07-02T10:30:00Z,27.8966,-93.5973,1015.97,11111222 
TABS,ioos:station:wmo:42047:1,2014-07-02T11:00:00Z,27.8966,-93.5973,1016.07,11111222 
TABS,ioos:station:wmo:42047:1,2014-07-02T11:30:00Z,27.8966,-93.5973,1016.05,11111222 
TABS,ioos:station:wmo:42047:1,2014-07-02T12:00:00Z,27.8966,-93.5973,1015.97,11111222 
TABS,ioos:station:wmo:42047:1,2014-07-02T12:30:00Z,27.8966,-93.5973,1016.03,11111222 
TABS,ioos:station:wmo:42047:1,2014-07-02T13:00:00Z,27.8966,-93.5973,1016.28,11111222 
TABS,ioos:station:wmo:42047:1,2014-07-02T13:30:00Z,27.8966,-93.5973,1016.61,11111222 
TABS,ioos:station:wmo:42047:1,2014-07-02T14:00:00Z,27.8966,-93.5973,1016.96,11111222 
TABS,ioos:station:wmo:42047:1,2014-07-02T14:30:00Z,27.8966,-93.5973,1016.84,11111222 
TABS,ioos:station:wmo:42047:1,2014-07-02T15:00:00Z,27.8966,-93.5973,1017.22,11111222 
TABS,ioos:station:wmo:42047:1,2014-07-02T15:30:00Z,27.8966,-93.5973,1017.22,11111222 
TABS,ioos:station:wmo:42047:1,2014-07-02T16:00:00Z,27.8966,-93.5973,1017.74,11111222 
TABS,ioos:station:wmo:42047:1,2014-07-02T16:30:00Z,27.8966,-93.5973,1018.11,11111222 
TABS,ioos:station:wmo:42047:1,2014-07-02T17:00:00Z,27.8966,-93.5973,1018.53,11111222 
TABS,ioos:station:wmo:42047:1,2014-07-02T17:30:00Z,27.8966,-93.5973,1018.59,11111222 
TABS,ioos:station:wmo:42047:1,2014-07-02T18:00:00Z,27.8966,-93.5973,1018.52,11111222 
TABS,ioos:station:wmo:42047:1,2014-07-02T18:30:00Z,27.8966,-93.5973,1018.71,11111222 
TABS,ioos:station:wmo:42047:1,2014-07-02T19:00:00Z,27.8966,-93.5973,1018.65,11111222 
TABS,ioos:station:wmo:42047:1,2014-07-02T19:30:00Z,27.8966,-93.5973,1018.52,11111222 
TABS,ioos:station:wmo:42047:1,2014-07-02T20:00:00Z,27.8966,-93.5973,1018.35,11111222 
TABS,ioos:station:wmo:42047:1,2014-07-02T20:30:00Z,27.8966,-93.5973,1017.75,11111222 
TABS,ioos:station:wmo:42047:1,2014-07-02T21:00:00Z,27.8966,-93.5973,1017.23,11111222 
TABS,ioos:station:wmo:42047:1,2014-07-02T21:30:00Z,27.8966,-93.5973,1016.73,11111222 
TABS,ioos:station:wmo:42047:1,2014-07-02T22:00:00Z,27.8966,-93.5973,1016.55,11111222 
TABS,ioos:station:wmo:42047:1,2014-07-02T22:30:00Z,27.8966,-93.5973,1016.44,11111222 
TABS,ioos:station:wmo:42047:1,2014-07-02T23:00:00Z,27.8966,-93.5973,1016.52,11111222 
TABS,ioos:station:wmo:42047:1,2014-07-02T23:30:00Z,27.8966,-93.5973,1016.62,11111222 
TABS,ioos:station:wmo:42047:1,2014-07-03T00:00:00Z,27.8966,-93.5973,1016.22,11111222 
TABS,ioos:station:wmo:42047:1,2014-07-03T00:30:00Z,27.8966,-93.5973,1016.48,11111222 
TABS,ioos:station:wmo:42047:1,2014-07-03T01:00:00Z,27.8966,-93.5973,1016.63,11111222 
TABS,ioos:station:wmo:42047:1,2014-07-03T01:30:00Z,27.8966,-93.5973,1016.87,11111222 
TABS,ioos:station:wmo:42047:1,2014-07-03T02:00:00Z,27.8966,-93.5973,1016.78,11111222 
TABS,ioos:station:wmo:42047:1,2014-07-03T02:30:00Z,27.8966,-93.5973,1016.81,11111222 
TABS,ioos:station:wmo:42047:1,2014-07-03T03:00:00Z,27.8966,-93.5973,1017.09,11111222 
TABS,ioos:station:wmo:42047:1,2014-07-03T03:30:00Z,27.8966,-93.5973,1017.26,11111222 
TABS,ioos:station:wmo:42047:1,2014-07-03T04:00:00Z,27.8966,-93.5973,1017.7,11111222 
TABS,ioos:station:wmo:42047:1,2014-07-03T04:30:00Z,27.8966,-93.5973,1017.79,11111222 
TABS,ioos:station:wmo:42047:1,2014-07-03T05:00:00Z,27.8966,-93.5973,1018.25,11111222 
TABS,ioos:station:wmo:42047:1,2014-07-03T05:30:00Z,27.8966,-93.5973,1018.04,11111222 
TABS,ioos:station:wmo:42047:1,2014-07-03T06:00:00Z,27.8966,-93.5973,1017.77,11111222 
TABS,ioos:station:wmo:42047:1,2014-07-03T06:30:00Z,27.8966,-93.5973,1017.26,11111222 
TABS,ioos:station:wmo:42047:1,2014-07-03T07:00:00Z,27.8966,-93.5973,1017.22,11111222 
TABS,ioos:station:wmo:42047:1,2014-07-03T07:30:00Z,27.8966,-93.5973,1017.26,11111222 
TABS,ioos:station:wmo:42047:1,2014-07-03T08:00:00Z,27.8966,-93.5973,1017.16,11111222 
TABS,ioos:station:wmo:42047:1,2014-07-03T08:30:00Z,27.8966,-93.5973,1017.12,11111222 
TABS,ioos:station:wmo:42047:1,2014-07-03T09:00:00Z,27.8966,-93.5973,1017.13,11111222 
TABS,ioos:station:wmo:42047:1,2014-07-03T09:30:00Z,27.8966,-93.5973,1017.11,11111222 
TABS,ioos:station:wmo:42047:1,2014-07-03T10:00:00Z,27.8966,-93.5973,1017.26,11111222 
TABS,ioos:station:wmo:42047:1,2014-07-03T10:30:00Z,27.8966,-93.5973,1017.28,11111222 
TABS,ioos:station:wmo:42047:1,2014-07-03T11:00:00Z,27.8966,-93.5973,1017.54,11111222 
TABS,ioos:station:wmo:42047:1,2014-07-03T11:30:00Z,27.8966,-93.5973,1017.83,11111222 
TABS,ioos:station:wmo:42047:1,2014-07-03T12:00:00Z,27.8966,-93.5973,1018.09,11111222 
TABS,ioos:station:wmo:42047:1,2014-07-03T12:30:00Z,27.8966,-93.5973,1018.32,11111222 
TABS,ioos:station:wmo:42047:1,2014-07-03T13:00:00Z,27.8966,-93.5973,1018.81,11111222 
TABS,ioos:station:wmo:42047:1,2014-07-03T13:30:00Z,27.8966,-93.5973,1019.04,11111222 
TABS,ioos:station:wmo:42047:1,2014-07-03T14:00:00Z,27.8966,-93.5973,1019.34,11111222 
TABS,ioos:station:wmo:42047:1,2014-07-03T14:30:00Z,27.8966,-93.5973,1019.44,11111222 
TABS,ioos:station:wmo:42047:1,2014-07-03T15:00:00Z,27.8966,-93.5973,1019.64,11111222 
TABS,ioos:station:wmo:42047:1,2014-07-03T15:30:00Z,27.8966,-93.5973,1019.62,11111222 
TABS,ioos:station:wmo:42047:1,2014-07-03T16:00:00Z,27.8966,-93.5973,1019.65,11111222 
TABS,ioos:station:wmo:42047:1,2014-07-03T16:30:00Z,27.8966,-93.5973,1019.56,11111222 
TABS,ioos:station:wmo:42047:1,2014-07-03T17:00:00Z,27.8966,-93.5973,1019.26,11111222 
TABS,ioos:station:wmo:42047:1,2014-07-03T17:30:00Z,27.8966,-93.5973,1019.17,11111222 
TABS,ioos:station:wmo:42047:1,2014-07-03T18:00:00Z,27.8966,-93.5973,1018.94,11111222 
TABS,ioos:station:wmo:42047:1,2014-07-03T18:30:00Z,27.8966,-93.5973,1018.87,11111222 
TABS,ioos:station:wmo:42047:1,2014-07-03T19:00:00Z,27.8966,-93.5973,1018.48,11111222 
TABS,ioos:station:wmo:42047:1,2014-07-03T19:30:00Z,27.8966,-93.5973,1018.28,11111222 
TABS,ioos:station:wmo:42047:1,2014-07-03T20:00:00Z,27.8966,-93.5973,1018.1,11111222 
TABS,ioos:station:wmo:42047:1,2014-07-03T20:30:00Z,27.8966,-93.5973,1018.11,11111222 
TABS,ioos:station:wmo:42047:1,2014-07-03T21:00:00Z,27.8966,-93.5973,1017.9,11111222 
TABS,ioos:station:wmo:42047:1,2014-07-03T21:30:00Z,27.8966,-93.5973,1017.74,11111222 
TABS,ioos:station:wmo:42047:1,2014-07-03T22:00:00Z,27.8966,-93.5973,1017.74,11111222 
TABS,ioos:station:wmo:42047:1,2014-07-03T22:30:00Z,27.8966,-93.5973,1018.0,11111222 
TABS,ioos:station:wmo:42047:1,2014-07-03T23:00:00Z,27.8966,-93.5973,1018.25,11111222 
TABS,ioos:station:wmo:42047:1,2014-07-03T23:30:00Z,27.8966,-93.5973,1018.25,11111222 
TABS,ioos:station:wmo:42047:1,2014-07-04T00:00:00Z,27.8966,-93.5973,1018.5,11111222 
TABS,ioos:station:wmo:42047:1,2014-07-04T00:30:00Z,27.8966,-93.5973,1018.37,11111222 
TABS,ioos:station:wmo:42047:1,2014-07-04T01:00:00Z,27.8966,-93.5973,1018.41,11111222 
TABS,ioos:station:wmo:42047:1,2014-07-04T01:30:00Z,27.8966,-93.5973,1018.68,11111222 
TABS,ioos:station:wmo:42047:1,2014-07-04T02:00:00Z,27.8966,-93.5973,1019.47,11111222 
TABS,ioos:station:wmo:42047:1,2014-07-04T02:30:00Z,27.8966,-93.5973,1019.62,11111222 
TABS,ioos:station:wmo:42047:1,2014-07-04T03:00:00Z,27.8966,-93.5973,1019.73,11111222 
TABS,ioos:station:wmo:42047:1,2014-07-04T03:30:00Z,27.8966,-93.5973,1020.17,11111222 
TABS,ioos:station:wmo:42047:1,2014-07-04T04:00:00Z,27.8966,-93.5973,1020.08,11111222 
TABS,ioos:station:wmo:42047:1,2014-07-04T04:30:00Z,27.8966,-93.5973,1020.08,11111222 
TABS,ioos:station:wmo:42047:1,2014-07-04T05:00:00Z,27.8966,-93.5973,1019.94,11111222 
TABS,ioos:station:wmo:42047:1,2014-07-04T05:30:00Z,27.8966,-93.5973,1019.77,11111222 
TABS,ioos:station:wmo:42047:1,2014-07-04T06:00:00Z,27.8966,-93.5973,1019.36,11111222 
TABS,ioos:station:wmo:42047:1,2014-07-04T06:30:00Z,27.8966,-93.5973,1019.02,11111222 
TABS,ioos:station:wmo:42047:1,2014-07-04T07:00:00Z,27.8966,-93.5973,1018.75,11111222 
TABS,ioos:station:wmo:42047:1,2014-07-04T07:30:00Z,27.8966,-93.5973,1018.45,11111222 
TABS,ioos:station:wmo:42047:1,2014-07-04T08:00:00Z,27.8966,-93.5973,1018.29,11111222 
TABS,ioos:station:wmo:42047:1,2014-07-04T08:30:00Z,27.8966,-93.5973,1018.29,11111222 
TABS,ioos:station:wmo:42047:1,2014-07-04T09:00:00Z,27.8966,-93.5973,1018.5,11111222 
TABS,ioos:station:wmo:42047:1,2014-07-04T09:30:00Z,27.8966,-93.5973,1019.13,11111222 
TABS,ioos:station:wmo:42047:1,2014-07-04T10:00:00Z,27.8966,-93.5973,1019.35,11111222 
TABS,ioos:station:wmo:42047:1,2014-07-04T10:30:00Z,27.8966,-93.5973,1019.42,11111222 
TABS,ioos:station:wmo:42047:1,2014-07-04T11:00:00Z,27.8966,-93.5973,1019.79,11111222 
TABS,ioos:station:wmo:42047:1,2014-07-04T11:30:00Z,27.8966,-93.5973,1020.02,11111222 
TABS,ioos:station:wmo:42047:1,2014-07-04T12:00:00Z,27.8966,-93.5973,1020.24,11111222 
TABS,ioos:station:wmo:42047:1,2014-07-04T12:30:00Z,27.8966,-93.5973,1020.53,11111222 
TABS,ioos:station:wmo:42047:1,2014-07-04T13:00:00Z,27.8966,-93.5973,1020.74,11111222 
TABS,ioos:station:wmo:42047:1,2014-07-04T13:30:00Z,27.8966,-93.5973,1020.94,11111222 
TABS,ioos:station:wmo:42047:1,2014-07-04T14:00:00Z,27.8966,-93.5973,1020.93,11111222 
TABS,ioos:station:wmo:42047:1,2014-07-04T14:30:00Z,27.8966,-93.5973,1021.06,11111222 
TABS,ioos:station:wmo:42047:1,2014-07-04T15:00:00Z,27.8966,-93.5973,1021.21,11111222 
TABS,ioos:station:wmo:42047:1,2014-07-04T15:30:00Z,27.8966,-93.5973,1021.14,11111222 
TABS,ioos:station:wmo:42047:1,2014-07-04T16:00:00Z,27.8966,-93.5973,1021.24,11111222 
TABS,ioos:station:wmo:42047:1,2014-07-04T16:30:00Z,27.8966,-93.5973,1021.55,11111222 
TABS,ioos:station:wmo:42047:1,2014-07-04T17:00:00Z,27.8966,-93.5973,1021.47,11111222 
TABS,ioos:station:wmo:42047:1,2014-07-04T17:30:00Z,27.8966,-93.5973,1021.32,11111222 
TABS,ioos:station:wmo:42047:1,2014-07-04T18:00:00Z,27.8966,-93.5973,1021.19,11111222 
TABS,ioos:station:wmo:42047:1,2014-07-04T18:30:00Z,27.8966,-93.5973,1021.07,11111222 
TABS,ioos:station:wmo:42047:1,2014-07-04T19:00:00Z,27.8966,-93.5973,1020.82,11111222 
TABS,ioos:station:wmo:42047:1,2014-07-04T19:30:00Z,27.8966,-93.5973,1020.92,11111222 
TABS,ioos:station:wmo:42047:1,2014-07-04T20:00:00Z,27.8966,-93.5973,1020.77,11111222 
TABS,ioos:station:wmo:42047:1,2014-07-04T20:30:00Z,27.8966,-93.5973,1020.57,11111222 
TABS,ioos:station:wmo:42047:1,2014-07-04T21:00:00Z,27.8966,-93.5973,1020.28,11111222 
TABS,ioos:station:wmo:42047:1,2014-07-04T21:30:00Z,27.8966,-93.5973,1020.03,11111222 
TABS,ioos:station:wmo:42047:1,2014-07-04T22:00:00Z,27.8966,-93.5973,1019.95,11111222 
TABS,ioos:station:wmo:42047:1,2014-07-04T22:30:00Z,27.8966,-93.5973,1019.64,11111222 
TABS,ioos:station:wmo:42047:1,2014-07-04T23:00:00Z,27.8966,-93.5973,1019.5,11111222 
TABS,ioos:station:wmo:42047:1,2014-07-04T23:30:00Z,27.8966,-93.5973,1019.52,11111222 
TABS,ioos:station:wmo:42047:1,2014-07-05T00:00:00Z,27.8966,-93.5973,1019.5,11111222 
TABS,ioos:station:wmo:42047:1,2014-07-05T00:30:00Z,27.8966,-93.5973,1019.5,11111222 
TABS,ioos:station:wmo:42047:1,2014-07-05T01:00:00Z,27.8966,-93.5973,1019.73,11111222 
TABS,ioos:station:wmo:42047:1,2014-07-05T01:30:00Z,27.8966,-93.5973,1019.63,11111222 
TABS,ioos:station:wmo:42047:1,2014-07-05T02:00:00Z,27.8966,-93.5973,1019.75,11111222 
TABS,ioos:station:wmo:42047:1,2014-07-05T02:30:00Z,27.8966,-93.5973,1019.81,11111222 
TABS,ioos:station:wmo:42047:1,2014-07-05T03:00:00Z,27.8966,-93.5973,1020.12,11111222 
TABS,ioos:station:wmo:42047:1,2014-07-05T03:30:00Z,27.8966,-93.5973,1020.38,11111222 
TABS,ioos:station:wmo:42047:1,2014-07-05T04:00:00Z,27.8966,-93.5973,1020.59,11111222 
TABS,ioos:station:wmo:42047:1,2014-07-05T04:30:00Z,27.8966,-93.5973,1020.54,11111222 
TABS,ioos:station:wmo:42047:1,2014-07-05T05:00:00Z,27.8966,-93.5973,1020.35,11111222 
TABS,ioos:station:wmo:42047:1,2014-07-05T05:30:00Z,27.8966,-93.5973,1020.16,11111222 
TABS,ioos:station:wmo:42047:1,2014-07-05T06:00:00Z,27.8966,-93.5973,1019.91,11111222 
TABS,ioos:station:wmo:42047:1,2014-07-05T06:30:00Z,27.8966,-93.5973,1019.85,11111222 
TABS,ioos:station:wmo:42047:1,2014-07-05T07:00:00Z,27.8966,-93.5973,1019.71,11111222 
TABS,ioos:station:wmo:42047:1,2014-07-05T07:30:00Z,27.8966,-93.5973,1019.61,11111222 
TABS,ioos:station:wmo:42047:1,2014-07-05T08:00:00Z,27.8966,-93.5973,1019.6,11111222 
TABS,ioos:station:wmo:42047:1,2014-07-05T08:30:00Z,27.8966,-93.5973,1019.53,11111222 
TABS,ioos:station:wmo:42047:1,2014-07-05T09:00:00Z,27.8966,-93.5973,1019.76,11111222 
TABS,ioos:station:wmo:42047:1,2014-07-05T09:30:00Z,27.8966,-93.5973,1020.06,11111222 
TABS,ioos:station:wmo:42047:1,2014-07-05T10:00:00Z,27.8966,-93.5973,1020.37,11111222 
TABS,ioos:station:wmo:42047:1,2014-07-05T10:30:00Z,27.8966,-93.5973,1020.34,11111222 
TABS,ioos:station:wmo:42047:1,2014-07-05T11:00:00Z,27.8966,-93.5973,1020.24,11111222 
TABS,ioos:station:wmo:42047:1,2014-07-05T11:30:00Z,27.8966,-93.5973,1020.62,11111222 
TABS,ioos:station:wmo:42047:1,2014-07-05T12:00:00Z,27.8966,-93.5973,1020.66,11111222 
TABS,ioos:station:wmo:42047:1,2014-07-05T12:30:00Z,27.8966,-93.5973,1020.68,11111222 
TABS,ioos:station:wmo:42047:1,2014-07-05T13:00:00Z,27.8966,-93.5973,1021.06,11111222 
TABS,ioos:station:wmo:42047:1,2014-07-05T13:30:00Z,27.8966,-93.5973,1021.43,11111222 
TABS,ioos:station:wmo:42047:1,2014-07-05T14:00:00Z,27.8966,-93.5973,1021.76,11111222 
TABS,ioos:station:wmo:42047:1,2014-07-05T14:30:00Z,27.8966,-93.5973,1021.7,11111222 
TABS,ioos:station:wmo:42047:1,2014-07-05T15:00:00Z,27.8966,-93.5973,1021.51,11111222 
TABS,ioos:station:wmo:42047:1,2014-07-05T15:30:00Z,27.8966,-93.5973,1021.49,11111222 
TABS,ioos:station:wmo:42047:1,2014-07-05T16:00:00Z,27.8966,-93.5973,1021.56,11111222 
TABS,ioos:station:wmo:42047:1,2014-07-05T16:30:00Z,27.8966,-93.5973,1021.71,11111222 
TABS,ioos:station:wmo:42047:1,2014-07-05T17:00:00Z,27.8966,-93.5973,1021.55,11111222 
TABS,ioos:station:wmo:42047:1,2014-07-05T17:30:00Z,27.8966,-93.5973,1021.11,11111222 
TABS,ioos:station:wmo:42047:1,2014-07-05T18:00:00Z,27.8966,-93.5973,1021.01,11111222 
TABS,ioos:station:wmo:42047:1,2014-07-05T18:30:00Z,27.8966,-93.5973,1020.7,11111222 
TABS,ioos:station:wmo:42047:1,2014-07-05T19:00:00Z,27.8966,-93.5973,1020.58,11111222 
TABS,ioos:station:wmo:42047:1,2014-07-05T19:30:00Z,27.8966,-93.5973,1020.36,11111222 
TABS,ioos:station:wmo:42047:1,2014-07-05T20:00:00Z,27.8966,-93.5973,1020.28,11111222 
TABS,ioos:station:wmo:42047:1,2014-07-05T20:30:00Z,27.8966,-93.5973,1020.08,11111222 
TABS,ioos:station:wmo:42047:1,2014-07-05T21:00:00Z,27.8966,-93.5973,1019.94,11111222 
TABS,ioos:station:wmo:42047:1,2014-07-05T21:30:00Z,27.8966,-93.5973,1020.01,11111222 
TABS,ioos:station:wmo:42047:1,2014-07-05T22:00:00Z,27.8966,-93.5973,1019.74,11111222 
TABS,ioos:station:wmo:42047:1,2014-07-05T22:30:00Z,27.8966,-93.5973,1019.47,11111222 
TABS,ioos:station:wmo:42047:1,2014-07-05T23:00:00Z,27.8966,-93.5973,1019.37,11111222 
TABS,ioos:station:wmo:42047:1,2014-07-05T23:30:00Z,27.8966,-93.5973,1019.05,11111222 
TABS,ioos:station:wmo:42047:1,2014-07-06T00:00:00Z,27.8966,-93.5973,1019.07,11111222 
TABS,ioos:station:wmo:42047:1,2014-07-06T00:30:00Z,27.8966,-93.5973,1019.08,11111222 
TABS,ioos:station:wmo:42047:1,2014-07-06T01:00:00Z,27.8966,-93.5973,1018.98,11111222 
TABS,ioos:station:wmo:42047:1,2014-07-06T01:30:00Z,27.8966,-93.5973,1018.94,11111222 
TABS,ioos:station:wmo:42047:1,2014-07-06T02:00:00Z,27.8966,-93.5973,1018.95,11111222 
TABS,ioos:station:wmo:42047:1,2014-07-06T02:30:00Z,27.8966,-93.5973,1018.89,11111222 
TABS,ioos:station:wmo:42047:1,2014-07-06T03:00:00Z,27.8966,-93.5973,1018.78,11111222 
TABS,ioos:station:wmo:42047:1,2014-07-06T03:30:00Z,27.8966,-93.5973,1018.88,11111222 
TABS,ioos:station:wmo:42047:1,2014-07-06T04:00:00Z,27.8966,-93.5973,1018.97,11111222 
TABS,ioos:station:wmo:42047:1,2014-07-06T04:30:00Z,27.8966,-93.5973,1018.73,11111222 
TABS,ioos:station:wmo:42047:1,2014-07-06T05:00:00Z,27.8966,-93.5973,1018.52,11111222 
TABS,ioos:station:wmo:42047:1,2014-07-06T05:30:00Z,27.8966,-93.5973,1018.55,11111222 
TABS,ioos:station:wmo:42047:1,2014-07-06T06:00:00Z,27.8966,-93.5973,1018.52,11111222 
TABS,ioos:station:wmo:42047:1,2014-07-06T06:30:00Z,27.8966,-93.5973,1018.24,11111222 
TABS,ioos:station:wmo:42047:1,2014-07-06T07:00:00Z,27.8966,-93.5973,1018.24,11111222 
TABS,ioos:station:wmo:42047:1,2014-07-06T07:30:00Z,27.8966,-93.5973,1018.12,11111222 
TABS,ioos:station:wmo:42047:1,2014-07-06T08:00:00Z,27.8966,-93.5973,1018.08,11111222 
TABS,ioos:station:wmo:42047:1,2014-07-06T08:30:00Z,27.8966,-93.5973,1017.81,11111222 
TABS,ioos:station:wmo:42047:1,2014-07-06T09:00:00Z,27.8966,-93.5973,1017.81,11111222 
TABS,ioos:station:wmo:42047:1,2014-07-06T09:30:00Z,27.8966,-93.5973,1017.61,11111222 
TABS,ioos:station:wmo:42047:1,2014-07-06T10:00:00Z,27.8966,-93.5973,1017.41,11111222 
TABS,ioos:station:wmo:42047:1,2014-07-06T10:30:00Z,27.8966,-93.5973,1017.72,11111222 
TABS,ioos:station:wmo:42047:1,2014-07-06T11:00:00Z,27.8966,-93.5973,1017.89,11111222 
TABS,ioos:station:wmo:42047:1,2014-07-06T11:30:00Z,27.8966,-93.5973,1018.21,11111222 
TABS,ioos:station:wmo:42047:1,2014-07-06T12:00:00Z,27.8966,-93.5973,1018.39,11111222 
TABS,ioos:station:wmo:42047:1,2014-07-06T12:30:00Z,27.8966,-93.5973,1018.74,11111222 
TABS,ioos:station:wmo:42047:1,2014-07-06T13:00:00Z,27.8966,-93.5973,1019.03,11111222 
TABS,ioos:station:wmo:42047:1,2014-07-06T13:30:00Z,27.8966,-93.5973,1019.13,11111222 
TABS,ioos:station:wmo:42047:1,2014-07-06T14:00:00Z,27.8966,-93.5973,1019.29,11111222 
TABS,ioos:station:wmo:42047:1,2014-07-06T14:30:00Z,27.8966,-93.5973,1019.29,11111222 
TABS,ioos:station:wmo:42047:1,2014-07-06T15:00:00Z,27.8966,-93.5973,1019.21,11111222 
TABS,ioos:station:wmo:42047:1,2014-07-06T15:30:00Z,27.8966,-93.5973,1019.18,11111222 
TABS,ioos:station:wmo:42047:1,2014-07-06T16:00:00Z,27.8966,-93.5973,1019.23,11111222 
TABS,ioos:station:wmo:42047:1,2014-07-06T16:30:00Z,27.8966,-93.5973,1019.03,11111222 
TABS,ioos:station:wmo:42047:1,2014-07-06T17:00:00Z,27.8966,-93.5973,1018.99,11111222 
TABS,ioos:station:wmo:42047:1,2014-07-06T17:30:00Z,27.8966,-93.5973,1018.86,11111222 
TABS,ioos:station:wmo:42047:1,2014-07-06T18:00:00Z,27.8966,-93.5973,1018.66,11111222 
TABS,ioos:station:wmo:42047:1,2014-07-06T18:30:00Z,27.8966,-93.5973,1018.45,11111222 